1501182000.52,61612,19.06,73548.0,3.17,2.81,2.81,0,*7A
1501182001.75,61613,19.06,73546.0,3.17,2.85,2.81,0,*7F
1501182002.97,61614,19.06,73546.0,3.17,2.81,2.85,0,*78
1501182004.2,61615,19.06,73550.0,3.17,2.81,2.85,0,*79
1501182005.43,61616,19.06,73548.3,3.17,2.81,2.81,0,*7E
1501182006.66,61617,19.06,73550.3,3.17,2.81,2.81,0,*7F
1501182007.89,61618,19.06,73548.8,3.17,2.81,2.81,0,*70
1501182009.11,61619,19.13,73548.3,3.17,2.73,2.85,0,*78
1501182010.35,61620,19.06,73550.5,3.17,2.81,2.81,0,*7B
1501182011.59,61621,19.06,73550.5,3.19,2.85,2.85,0,*74
1501182012.82,61622,19.06,73550.3,3.17,2.81,2.73,0,*74
1501182014.04,61623,19.06,73546.5,3.17,2.73,2.73,0,*78
1501182015.29,61624,19.06,73548.3,3.19,2.77,2.85,0,*7C
1501182016.53,61625,19.06,73550.8,3.19,2.77,2.85,0,*7D
1501182017.78,61626,19.06,73548.8,3.19,2.77,2.85,0,*7E
1501182019.02,61627,19.06,73546.8,3.19,2.89,2.85,0,*7E
1501182020.26,61628,19.06,73550.3,3.19,2.89,2.85,0,*71
1501182021.51,61629,19.06,73546.8,3.19,2.85,2.85,0,*7C
1501182022.75,61630,19.06,73548.8,3.19,2.85,2.85,0,*74
1501182023.98,61631,19.06,73550.5,3.17,2.81,2.85,0,*7F
1501182025.22,61632,19.06,73544.3,3.19,2.85,2.85,0,*76
1501182026.47,61633,19.06,73546.0,3.19,2.85,2.85,0,*77
1501182027.71,61634,19.06,73550.8,3.19,2.77,2.85,0,*7D
1501182028.95,61635,19.06,73550.0,3.19,2.85,2.85,0,*71
1501182030.2,61636,19.06,73548.3,3.19,2.85,2.85,0,*72
1501182031.44,61637,19.06,73546.8,3.19,2.85,2.85,0,*73
1501182032.69,61638,19.06,73548.8,3.19,2.85,2.85,0,*7C
1501182033.93,61639,19.06,73548.8,3.19,2.85,2.85,0,*7D
1501182035.18,61640,19.06,73550.0,3.19,2.89,2.89,0,*73
1501182036.41,61641,19.06,73548.5,3.17,2.73,2.81,0,*71
1501182037.65,61642,19.06,73550.3,3.19,2.85,2.85,0,*71
1501182038.9,61643,19.06,73550.3,3.19,2.77,2.77,0,*70
1501182040.15,61644,19.13,73550.5,3.19,2.77,2.77,0,*77
1501182041.4,61645,19.06,73548.3,3.19,2.77,2.77,0,*76
1501182042.64,61646,19.06,73550.0,3.19,2.77,2.85,0,*78
1501182043.89,61647,19.06,73548.3,3.19,2.85,2.85,0,*74
1501182045.13,61648,19.06,73546.8,3.19,2.89,2.85,0,*77
1501182046.35,61649,19.06,73552.5,3.21,2.85,2.85,0,*71
1501182047.6,61650,19.06,73550.5,3.19,2.85,2.85,0,*72
1501182048.82,61651,19.06,73548.8,3.21,2.85,2.85,0,*78
1501182050.04,61652,19.06,73548.3,3.21,2.85,2.85,0,*7B
1501182051.27,61653,19.06,73550.3,3.21,2.77,2.77,0,*7A
1501182052.49,61654,19.06,73550.0,3.21,2.89,2.85,0,*71
1501182053.68,61655,19.06,73550.0,3.25,2.89,2.91,0,*71
1501182054.9,61656,19.06,73548.8,3.21,2.85,2.85,0,*7F
1501182056.13,61657,19.06,73550.5,3.21,2.85,2.89,0,*72
1501182057.36,61658,19.06,73546.8,3.21,2.85,2.89,0,*7D
1501182058.58,61659,19.06,73548.5,3.25,2.89,2.89,0,*74
1501182059.81,61660,19.06,73546.8,3.21,2.89,2.89,0,*7A
1501182061.01,61661,19.06,73548.3,3.25,2.89,2.91,0,*76
1501182062.18,61662,19.06,73550.0,3.25,2.91,2.91,0,*7C
1501182063.35,61663,19.06,73548.3,3.25,2.91,2.91,0,*7D
1501182064.55,61664,19.06,73552.5,3.25,2.89,2.91,0,*73
1501182065.77,61665,19.06,73550.0,3.21,2.89,2.85,0,*73
1501182066.97,61666,19.06,73548.0,3.25,2.89,2.91,0,*71
1501182068.19,61667,19.06,73550.8,3.21,2.85,2.85,0,*7D
1501182069.41,61668,19.06,73550.0,3.25,2.89,2.89,0,*76
1501182070.64,61669,19.06,73546.5,3.25,2.89,2.89,0,*77
1501182071.86,61670,19.06,73550.0,3.27,2.89,2.91,0,*74
1501182073.11,61671,19.06,73548.8,3.27,2.89,2.89,0,*7C
1501182074.34,61672,19.06,73548.0,3.27,2.91,2.89,0,*76
1501182075.53,61673,19.06,73548.8,3.25,2.89,2.99,0,*7D
1501182076.75,61674,19.06,73548.5,3.21,2.89,2.85,0,*73
1501182077.95,61675,19.06,73550.8,3.25,2.81,2.99,0,*73
1501182079.18,61676,19.06,73548.3,3.27,2.91,2.89,0,*72
1501182080.38,61677,19.06,73550.3,3.27,2.91,2.91,0,*7A
1501182081.64,61678,19.06,73554.3,3.27,2.81,2.89,0,*7D
1501182082.81,61679,19.06,73548.5,3.29,2.95,2.95,0,*7A
1501182083.99,61680,19.06,73550.3,3.25,2.91,2.91,0,*70
1501182085.16,61681,19.06,73552.0,3.25,2.91,2.91,0,*71
1501182086.41,61682,19.06,73550.0,3.27,2.89,2.89,0,*70
1501182087.61,61683,19.06,73550.8,3.29,2.89,2.95,0,*72
1501182088.81,61684,19.06,73548.3,3.27,2.91,2.91,0,*76
1501182090.01,61685,19.06,73548.3,3.27,2.91,2.91,0,*77
1501182091.21,61686,19.06,73548.3,3.27,2.91,2.91,0,*74
1501182092.43,61687,19.06,73552.0,3.27,2.89,2.91,0,*7C
1501182093.63,61688,19.06,73548.0,3.27,2.91,2.91,0,*7A
1501182094.86,61689,19.06,73552.5,3.27,2.91,2.89,0,*72
1501182096.04,61690,19.06,73550.5,3.29,2.95,2.91,0,*79
1501182097.22,61691,19.06,73550.0,3.29,2.91,2.91,0,*7C
1501182098.4,61692,19.06,73552.8,3.29,2.95,2.95,0,*7F
1501182099.58,61693,19.06,73548.5,3.29,2.91,2.95,0,*7A
1501182100.8,61694,19.06,73550.0,3.27,2.89,2.91,0,*7E
1501182101.98,61695,19.06,73548.8,3.29,2.95,2.95,0,*78
1501182103.18,61696,19.06,73548.3,3.27,2.91,2.91,0,*75
1501182104.35,61697,19.06,73550.3,3.29,2.95,2.91,0,*7E
1501182105.61,61698,19.06,73548.3,3.27,2.81,2.89,0,*73
1501182106.79,61699,19.06,73548.0,3.29,2.91,2.95,0,*70
1501182108.01,61700,19.06,73548.5,3.27,2.89,2.91,0,*72
1501182109.23,61701,19.06,73548.8,3.31,2.89,2.91,0,*74
1501182110.41,61702,19.06,73550.8,3.29,2.91,2.91,0,*77
1501182111.59,61703,19.06,73548.3,3.29,2.91,2.95,0,*72
1501182112.84,61704,19.06,73550.8,3.27,2.89,2.89,0,*7F
1501182114.02,61705,19.06,73550.3,3.29,2.91,2.91,0,*70
1501182115.2,61706,19.06,73550.3,3.29,2.91,2.91,0,*73
1501182116.38,61707,19.06,73550.0,3.29,2.95,2.95,0,*72
1501182117.56,61708,19.06,73546.3,3.29,2.95,2.95,0,*7D
1501182118.76,61709,19.06,73552.5,3.31,2.91,2.95,0,*71
1501182119.93,61710,19.06,73550.5,3.29,2.95,2.91,0,*70
1501182121.13,61711,19.06,73546.3,3.29,2.85,2.91,0,*70
1501182122.31,61712,19.06,73550.0,3.29,2.91,2.91,0,*76
1501182123.49,61713,19.06,73554.0,3.29,2.91,2.95,0,*73
1501182124.69,61714,19.06,73544.0,3.31,2.91,2.91,0,*79
1501182125.89,61715,19.06,73550.5,3.31,2.91,2.95,0,*7C
1501182127.09,61716,19.06,73548.8,3.31,2.95,2.95,0,*7B
1501182128.29,61717,19.06,73550.8,3.31,2.91,2.91,0,*7A
1501182129.49,61718,19.06,73548.5,3.31,2.95,2.95,0,*75
1501182130.69,61719,19.06,73550.0,3.31,2.91,2.91,0,*74
1501182131.89,61720,19.06,73550.0,3.31,2.95,2.95,0,*7E
1501182133.09,61721,19.06,73550.8,3.31,2.91,2.95,0,*7B
1501182134.29,61722,19.06,73548.5,3.31,2.91,2.91,0,*7C
1501182135.49,61723,19.06,73550.0,3.31,2.91,2.95,0,*79
1501182136.69,61724,19.06,73548.8,3.31,2.91,2.95,0,*7E
1501182137.9,61725,19.06,73548.5,3.33,2.95,2.95,0,*79
1501182139.1,61726,19.06,73548.5,3.33,2.99,2.99,0,*7A
1501182140.31,61727,19.06,73550.5,3.31,2.91,2.91,0,*79
1501182141.51,61728,19.06,73550.5,3.31,2.91,2.91,0,*76
1501182142.71,61729,19.06,73550.3,3.31,2.91,2.95,0,*73
1501182143.91,61730,19.06,73550.0,3.31,2.91,2.91,0,*7F
1501182145.11,61731,19.06,73550.8,3.31,2.95,2.95,0,*7E
1501182146.3,61732,19.06,73550.3,3.31,2.95,2.95,0,*7D
1501182147.5,61733,19.06,73550.5,3.31,2.95,2.91,0,*78
1501182148.71,61734,19.06,73550.3,3.33,2.99,2.95,0,*75
1501182149.91,61735,19.06,73552.0,3.33,2.99,2.95,0,*74
1501182151.11,61736,19.06,73550.0,3.31,2.95,2.91,0,*7D
1501182152.32,61737,19.06,73548.5,3.33,2.95,2.95,0,*7A
1501182153.52,61738,19.06,73550.3,3.33,2.95,2.95,0,*75
1501182154.72,61739,19.06,73552.0,3.31,2.91,2.95,0,*72
1501182155.92,61740,19.06,73548.0,3.31,2.95,2.91,0,*7C
1501182157.13,61741,19.06,73548.3,3.33,2.95,2.99,0,*77
1501182158.35,61742,19.06,73552.3,3.31,2.91,2.85,0,*7F
1501182159.56,61743,19.06,73544.8,3.33,2.95,2.95,0,*79
1501182160.76,61744,19.06,73552.0,3.31,2.91,2.95,0,*78
1501182161.96,61745,19.06,73550.8,3.31,2.91,2.91,0,*7D
1501182163.17,61746,19.06,73554.0,3.33,2.99,2.95,0,*70
1501182164.37,61747,19.06,73552.0,3.31,2.95,2.91,0,*7B
1501182165.6,61748,19.06,73548.5,3.33,2.95,2.89,0,*7F
1501182166.81,61749,19.06,73546.8,3.33,2.95,2.99,0,*7F
1501182168.01,61750,19.06,73550.3,3.33,2.95,2.99,0,*77
1501182169.22,61751,19.06,73550.0,3.33,2.95,2.99,0,*76
1501182170.43,61752,19.06,73550.3,3.33,2.99,2.99,0,*79
1501182171.63,61753,19.06,73552.0,3.33,2.95,2.99,0,*74
1501182172.84,61754,19.06,73552.3,3.33,2.99,2.99,0,*7F
1501182174.05,61755,19.06,73550.3,3.33,2.99,2.95,0,*72
1501182175.25,61756,19.06,73550.0,3.33,2.99,2.95,0,*71
1501182176.46,61757,19.06,73550.0,3.33,2.95,2.99,0,*70
1501182177.66,61758,19.06,73550.3,3.31,2.91,2.95,0,*75
1501182178.86,61759,19.06,73550.0,3.33,2.95,2.99,0,*7E
1501182180.07,61760,19.06,73550.3,3.35,3.03,2.99,0,*7C
1501182181.28,61761,19.06,73548.0,3.33,2.99,2.95,0,*75
1501182182.49,61762,19.06,73550.3,3.35,2.99,3.03,0,*7E
1501182183.7,61763,19.06,73552.0,3.35,3.03,2.99,0,*7F
1501182184.9,61764,19.06,73552.0,3.35,2.99,3.03,0,*78
1501182186.11,61765,19.06,73550.8,3.35,2.99,3.03,0,*79
1501182187.34,61766,19.06,73548.8,3.37,2.99,3.03,0,*78
1501182188.57,61767,19.06,73548.5,3.37,2.99,3.03,0,*79
1501182189.75,61768,19.06,73550.5,3.35,2.99,2.99,0,*76
1501182190.93,61769,19.06,73548.5,3.35,2.99,2.99,0,*77
1501182192.14,61770,19.06,73552.0,3.37,2.99,2.91,0,*75
1501182193.37,61771,19.06,73552.0,3.35,3.03,3.03,0,*7E
1501182194.55,61772,19.06,73550.5,3.35,2.99,2.99,0,*7D
1501182195.76,61773,19.06,73550.5,3.35,2.99,3.03,0,*7E
1501182197.0,61774,19.06,73550.0,3.35,3.03,3.03,0,*7B
1501182198.23,61775,19.06,73550.8,3.35,3.03,3.03,0,*7A
1501182199.44,61776,19.06,73548.8,3.35,2.99,3.03,0,*7B
1501182200.65,61777,19.06,73546.8,3.35,2.99,3.03,0,*7A
1501182201.88,61778,19.06,73550.0,3.37,2.99,3.03,0,*77
1501182203.12,61779,19.06,73552.0,3.35,3.03,3.03,0,*76
1501182204.35,61780,19.06,73550.0,3.35,3.03,3.03,0,*70
1501182205.59,61781,19.06,73550.0,3.37,3.03,2.99,0,*71
1501182206.79,61782,19.06,73550.8,3.37,2.99,2.99,0,*70
1501182207.97,61783,19.06,73548.5,3.35,2.99,2.99,0,*73
1501182209.18,61784,19.06,73548.8,3.35,3.03,2.99,0,*76
1501182210.38,61785,19.06,73548.3,3.37,2.91,2.99,0,*7F
1501182211.64,61786,19.06,73550.3,3.37,3.03,3.03,0,*74
1501182212.82,61787,19.06,73550.0,3.35,2.99,2.99,0,*77
1501182214.03,61788,19.06,73548.5,3.35,3.03,2.99,0,*7A
1501182215.24,61789,19.06,73548.3,3.37,2.99,2.99,0,*7B
1501182216.42,61790,19.06,73550.3,3.35,2.99,2.99,0,*71
1501182217.62,61791,19.06,73548.5,3.37,2.99,2.99,0,*72
1501182218.85,61792,19.06,73548.5,3.37,2.99,3.03,0,*73
1501182220.05,61793,19.06,73550.3,3.37,2.99,2.99,0,*70
1501182221.29,61794,19.06,73548.8,3.37,2.99,3.03,0,*75
1501182222.52,61795,19.06,73548.5,3.37,2.99,3.03,0,*74
1501182223.75,61796,19.06,73550.3,3.37,3.03,2.91,0,*7F
1501182224.98,61797,19.06,73550.3,3.37,2.99,3.03,0,*76
1501182226.21,61798,19.06,73552.0,3.37,3.03,2.99,0,*79
1501182227.42,61799,19.06,73548.0,3.37,2.99,2.99,0,*7A
1501182228.62,61800,19.06,73548.5,3.37,2.91,2.99,0,*7D
1501182229.82,61801,19.06,73548.8,3.37,2.99,2.99,0,*74
1501182231.03,61802,19.06,73550.0,3.37,2.99,2.99,0,*77
1501182232.26,61803,19.06,73548.5,3.37,2.89,2.99,0,*77
1501182233.46,61804,19.06,73548.5,3.39,2.95,3.07,0,*75
1501182234.66,61805,19.06,73548.5,3.39,2.95,3.03,0,*70
1501182235.9,61806,19.06,73550.8,3.39,3.07,3.03,0,*79
1501182237.13,61807,19.06,73548.0,3.37,2.99,3.03,0,*70
1501182238.36,61808,19.06,73548.5,3.39,3.03,3.03,0,*73
1501182239.6,61809,19.06,73548.0,3.39,3.07,3.07,0,*72
1501182240.83,61810,19.06,73550.0,3.39,3.03,3.03,0,*7A
1501182242.06,61811,19.06,73548.5,3.39,3.03,3.07,0,*7F
1501182243.33,61812,19.06,73550.5,3.41,3.07,3.03,0,*73
1501182244.56,61813,19.06,73552.0,3.39,3.03,3.03,0,*79
1501182245.79,61814,19.06,73550.0,3.39,3.03,3.03,0,*7E
1501182247.0,61815,19.06,73554.8,3.39,2.95,3.03,0,*71
1501182248.23,61816,19.06,73550.5,3.39,3.07,3.03,0,*78
1501182249.46,61817,19.06,73548.8,3.39,3.03,3.07,0,*79
1501182250.72,61818,19.06,73548.0,3.41,3.03,3.07,0,*79
1501182251.95,61819,19.06,73548.0,3.39,3.03,3.07,0,*77
1501182253.19,61820,19.06,73548.5,3.39,3.03,3.03,0,*79
1501182254.45,61821,19.06,73548.5,3.41,3.03,3.03,0,*77
1501182255.68,61822,19.06,73548.3,3.39,3.03,3.03,0,*7B
1501182256.89,61823,19.06,73548.0,3.39,2.95,3.03,0,*74
1501182258.06,61824,19.06,73548.5,3.39,2.95,2.95,0,*7D
1501182259.3,61825,19.06,73550.8,3.39,3.07,3.03,0,*78
1501182260.53,61826,19.06,73550.3,3.39,3.07,3.03,0,*7B
1501182261.77,61827,19.06,73546.5,3.39,3.03,3.03,0,*7E
1501182263.0,61828,19.06,73548.8,3.39,3.03,3.07,0,*75
1501182264.23,61829,19.06,73550.3,3.39,3.03,3.07,0,*74
1501182265.49,61830,19.06,73548.8,3.41,3.03,3.03,0,*77
1501182266.76,61831,19.06,73548.5,3.41,3.07,3.07,0,*76
1501182268.02,61832,19.06,73550.8,3.41,3.03,3.03,0,*75
1501182269.25,61833,19.06,73548.0,3.39,3.03,3.07,0,*7F
1501182270.51,61834,19.06,73550.0,3.41,3.03,3.03,0,*73
1501182271.78,61835,19.06,73548.8,3.41,3.07,3.03,0,*76
1501182273.01,61836,19.06,73550.5,3.41,2.95,3.07,0,*7B
1501182274.24,61837,19.06,73548.0,3.41,3.03,2.95,0,*7E
1501182275.48,61838,19.06,73546.0,3.41,3.03,2.95,0,*71
1501182276.68,61839,19.06,73548.0,3.41,2.95,2.95,0,*7E
1501182277.95,61840,19.06,73548.8,3.41,3.03,3.03,0,*70
1501182279.21,61841,19.06,73552.0,3.41,3.03,3.03,0,*71
1501182280.47,61842,19.06,73548.0,3.41,3.03,3.03,0,*72
1501182281.68,61843,19.06,73548.5,3.43,3.07,2.99,0,*77
1501182282.94,61844,19.06,73548.3,3.41,3.03,3.03,0,*74
1501182284.14,61845,19.06,73550.3,3.43,2.99,3.07,0,*71
1501182285.38,61846,19.06,73548.3,3.43,3.07,3.07,0,*74
1501182286.61,61847,19.06,73552.0,3.41,2.95,3.03,0,*79
1501182287.88,61848,19.06,73548.8,3.41,3.07,3.03,0,*7C
1501182289.11,61849,19.06,73546.3,3.43,3.11,3.11,0,*7B
1501182290.37,61850,19.06,73548.8,3.45,3.07,3.11,0,*72
1501182291.6,61851,19.06,73548.8,3.43,3.07,3.07,0,*72
1501182292.83,61852,19.06,73550.3,3.43,3.11,3.07,0,*76
1501182294.07,61853,19.06,73550.0,3.43,3.07,3.07,0,*70
1501182295.27,61854,19.06,73548.5,3.43,2.99,3.11,0,*76
1501182296.5,61855,19.06,73548.5,3.43,3.07,3.11,0,*71
1501182297.74,61856,19.06,73550.0,3.43,3.07,3.07,0,*75
1501182298.97,61857,19.06,73550.3,3.43,3.07,3.11,0,*73
1501182300.21,61858,19.06,73548.5,3.43,3.07,3.07,0,*7B
1501182301.43,61859,19.06,73550.0,3.45,2.99,3.07,0,*7A
1501182302.61,61860,19.06,73548.3,3.43,2.99,2.99,0,*70
1501182303.85,61861,19.06,73548.5,3.45,3.07,2.99,0,*71
1501182305.02,61862,19.06,73552.0,3.43,2.99,2.99,0,*72
1501182306.26,61863,19.06,73550.3,3.45,3.07,2.99,0,*73
1501182307.49,61864,19.06,73550.5,3.45,2.99,3.11,0,*73
1501182308.75,61865,19.06,73550.8,3.45,3.07,3.07,0,*73
1501182309.95,61866,19.06,73548.0,3.43,2.99,3.11,0,*77
1501182311.21,61867,19.06,73548.5,3.45,3.07,3.07,0,*71
1501182312.44,61868,19.06,73552.0,3.45,2.95,3.07,0,*74
1501182313.62,61869,19.06,73548.0,3.43,2.99,2.99,0,*79
1501182314.82,61870,19.06,73550.3,3.43,2.99,3.07,0,*77
1501182316.02,61871,19.06,73550.0,3.43,2.99,3.11,0,*71
1501182317.22,61872,19.06,73550.3,3.45,2.99,2.99,0,*75
1501182318.43,61873,19.06,73548.5,3.45,2.99,2.99,0,*74
1501182319.6,61874,19.06,73548.5,3.43,2.95,2.99,0,*79
1501182320.81,61875,19.06,73552.8,3.43,3.07,2.99,0,*72
1501182322.04,61876,19.06,73550.3,3.45,2.99,3.07,0,*77
1501182323.27,61877,19.06,73548.3,3.45,2.99,3.07,0,*76
1501182324.47,61878,19.06,73550.0,3.45,2.99,2.99,0,*7F
1501182325.67,61879,19.06,73548.5,3.45,2.95,2.99,0,*72
1501182326.88,61880,19.06,73550.0,3.45,2.95,2.95,0,*78
1501182328.08,61881,19.06,73548.0,3.45,2.99,2.95,0,*75
1501182329.28,61882,19.06,73550.8,3.45,2.99,2.99,0,*7A
1501182330.46,61883,19.06,73548.5,3.43,2.95,2.95,0,*7D
1501182331.66,61884,19.06,73548.5,3.45,2.99,2.99,0,*7C
1501182332.86,61885,19.06,73546.3,3.45,2.95,2.99,0,*71
1501182334.07,61886,19.06,73544.3,3.45,2.95,2.99,0,*72
1501182335.27,61887,19.06,73550.0,3.45,2.99,2.99,0,*7F
1501182336.47,61888,19.06,73554.0,3.45,2.99,2.99,0,*70
1501182337.67,61889,19.06,73550.3,3.45,2.99,2.95,0,*7D
1501182338.88,61890,19.06,73550.3,3.45,2.99,2.99,0,*79
1501182340.08,61891,19.06,73550.0,3.45,2.99,2.99,0,*78
1501182341.28,61892,19.06,73550.5,3.45,2.99,2.99,0,*7B
1501182342.52,61893,19.06,73548.0,3.49,3.03,2.95,0,*78
1501182343.7,61894,19.06,73550.3,3.43,2.95,2.99,0,*77
1501182344.9,61895,19.06,73552.3,3.45,2.99,2.95,0,*70
1501182346.1,61896,19.06,73548.5,3.45,2.95,2.95,0,*7F
1501182347.3,61897,19.06,73550.5,3.45,2.99,2.95,0,*72
1501182348.51,61898,19.06,73550.3,3.45,2.95,2.99,0,*7D
1501182349.71,61899,19.06,73552.0,3.45,2.99,2.99,0,*70
1501182350.89,61900,19.06,73550.3,3.43,2.99,2.99,0,*77
1501182352.06,61901,19.06,73552.5,3.43,2.99,2.99,0,*76
1501182353.27,61902,19.06,73552.3,3.45,2.99,2.99,0,*73
1501182354.47,61903,19.06,73550.8,3.45,2.99,2.99,0,*72
1501182355.7,61904,19.06,73548.8,3.45,2.95,3.07,0,*7F
1501182356.9,61905,19.06,73548.3,3.45,2.99,2.99,0,*74
1501182358.13,61906,19.06,73552.5,3.49,2.99,3.03,0,*79
1501182359.37,61907,19.06,73550.3,3.49,2.99,3.03,0,*78
1501182360.6,61908,19.06,73550.3,3.49,2.99,3.03,0,*77
1501182361.81,61909,19.06,73548.0,3.49,2.99,2.99,0,*74
1501182363.02,61910,19.06,73550.3,3.49,2.99,2.99,0,*7C
1501182364.25,61911,19.06,73548.3,3.49,3.03,2.99,0,*7F
1501182365.51,61912,19.06,73550.5,3.49,3.03,3.03,0,*7E
1501182366.78,61913,19.06,73550.5,3.49,3.03,3.03,0,*7F
1501182368.01,61914,19.06,73554.0,3.49,3.03,2.99,0,*7A
1501182369.27,61915,19.06,73552.5,3.49,3.03,3.03,0,*79
1501182370.48,61916,19.06,73548.0,3.45,2.95,2.99,0,*7A
1501182371.68,61917,19.06,73550.3,3.45,2.99,2.95,0,*7B
1501182372.88,61918,19.06,73550.8,3.45,2.95,2.95,0,*78
1501182374.08,61919,19.06,73552.8,3.45,2.95,2.99,0,*75
1501182375.32,61920,19.06,73552.8,3.49,2.99,3.03,0,*7D
1501182376.52,61921,19.06,73548.5,3.49,2.99,2.99,0,*7E
1501182377.79,61922,19.06,73548.5,3.49,3.03,3.03,0,*7D
1501182379.05,61923,19.06,73548.0,3.49,3.03,3.03,0,*7C
1501182380.28,61924,19.06,73548.8,3.49,2.99,3.03,0,*79
1501182381.52,61925,19.06,73552.0,3.49,2.99,3.03,0,*78
1501182382.75,61926,19.06,73548.3,3.49,3.03,2.99,0,*7B
1501182384.01,61927,19.06,73552.5,3.49,3.03,3.03,0,*78
1501182385.28,61928,19.06,73552.5,3.49,3.03,3.03,0,*77
1501182386.54,61929,19.06,73552.0,3.49,3.03,3.03,0,*76
1501182387.78,61930,19.06,73544.8,3.51,3.07,3.15,0,*74
1501182389.02,61931,19.06,73550.8,3.49,2.99,3.03,0,*7D
1501182390.28,61932,19.06,73548.5,3.49,3.03,3.03,0,*7C
1501182391.52,61933,19.06,73550.8,3.51,3.15,3.03,0,*73
1501182392.78,61934,19.06,73550.8,3.49,3.03,3.03,0,*7A
1501182394.04,61935,19.06,73550.0,3.49,3.03,3.03,0,*7B
1501182395.31,61936,19.06,73548.8,3.49,3.03,3.03,0,*78
1501182396.54,61937,19.06,73548.5,3.49,3.03,2.99,0,*7B
1501182397.78,61938,19.06,73550.0,3.49,2.99,3.03,0,*74
1501182398.98,61939,19.06,73550.3,3.49,2.99,2.99,0,*77
1501182400.22,61940,19.06,73550.8,3.49,3.03,2.99,0,*7B
1501182401.45,61941,19.06,73548.8,3.51,3.07,3.07,0,*71
1501182402.69,61942,19.06,73550.8,3.49,2.99,3.03,0,*79
1501182403.95,61943,19.06,73550.8,3.49,3.03,3.03,0,*7A
1501182405.19,61944,19.06,73550.8,3.51,3.07,3.07,0,*74
1501182406.43,61945,19.06,73550.8,3.51,3.07,3.03,0,*71
1501182407.69,61946,19.06,73552.0,3.49,3.03,3.03,0,*7F
1501182408.95,61947,19.06,73550.5,3.49,3.03,3.03,0,*7E
1501182410.21,61948,19.06,73548.8,3.49,3.03,3.03,0,*71
1501182411.45,61949,19.06,73550.3,3.51,3.07,3.07,0,*79
1501182412.69,61950,19.06,73548.8,3.51,3.07,3.07,0,*71
1501182413.95,61951,19.06,73552.0,3.49,3.03,3.03,0,*79
1501182415.21,61952,19.06,73550.3,3.49,3.03,3.03,0,*7A
1501182416.45,61953,19.06,73546.8,3.51,3.07,3.15,0,*71
1501182417.69,61954,19.06,73554.8,3.49,3.03,2.99,0,*7E
1501182418.92,61955,19.06,73550.5,3.49,2.99,3.03,0,*7F
1501182420.16,61956,19.06,73548.5,3.51,3.03,3.03,0,*77
1501182421.36,61957,19.06,73548.8,3.49,2.99,2.99,0,*7F
1501182422.6,61958,19.06,73548.3,3.51,3.07,3.07,0,*79
1501182423.81,61959,19.06,73552.0,3.51,3.03,2.95,0,*76
1501182425.02,61960,19.06,73552.0,3.49,2.91,2.99,0,*73
1501182426.26,61961,19.06,73550.5,3.49,2.91,2.89,0,*73
1501182427.46,61962,19.06,73554.0,3.49,2.91,2.91,0,*79
1501182428.67,61963,19.06,73554.5,3.51,2.95,3.03,0,*7F
1501182429.85,61964,19.06,73548.5,3.51,2.95,2.95,0,*76
1501182431.08,61965,19.06,73548.8,3.49,3.03,2.91,0,*74
1501182432.29,61966,19.06,73548.8,3.49,2.99,2.91,0,*75
1501182433.49,61967,19.06,73548.3,3.51,2.89,2.95,0,*78
1501182434.7,61968,19.06,73550.5,3.51,3.03,2.95,0,*74
1501182435.94,61969,19.06,73550.5,3.53,2.91,3.03,0,*73
1501182437.17,61970,19.06,73550.8,3.51,3.07,3.07,0,*73
1501182438.41,61971,19.06,73548.3,3.49,2.99,2.89,0,*7A
1501182439.61,61972,19.06,73550.3,3.49,2.99,2.91,0,*70
1501182440.82,61973,19.06,73548.8,3.49,2.99,2.91,0,*71
1501182442.03,61974,19.06,73550.3,3.49,2.99,2.99,0,*7E
1501182443.26,61975,19.06,73552.8,3.51,3.03,3.03,0,*76
1501182444.5,61976,19.06,73552.0,3.49,2.91,2.89,0,*75
1501182445.7,61977,19.06,73548.5,3.53,2.95,2.95,0,*76
1501182446.93,61978,19.06,73548.0,3.49,2.89,2.91,0,*7B
1501182448.12,61979,19.06,73552.0,3.51,2.91,2.95,0,*7E
1501182449.38,61980,19.06,73550.8,3.49,2.81,2.89,0,*7D
1501182450.64,61981,19.06,73550.5,3.49,2.89,2.89,0,*74
1501182451.86,61982,19.06,73550.3,3.49,2.89,2.91,0,*7E
1501182453.1,61983,19.06,73550.3,3.49,2.81,2.91,0,*77
1501182454.36,61984,19.06,73548.8,3.49,2.89,2.89,0,*71
1501182455.56,61985,19.06,73550.5,3.49,2.91,2.91,0,*70
1501182456.79,61986,19.06,73548.0,3.49,2.89,2.91,0,*7A
1501182458.02,61987,19.06,73548.3,3.49,2.89,2.99,0,*73
1501182459.26,61988,19.06,73550.3,3.51,3.03,3.03,0,*74
1501182460.46,61989,19.06,73548.8,3.51,3.03,2.95,0,*7B
1501182461.7,61990,19.06,73550.3,3.49,2.99,2.89,0,*75
1501182462.94,61991,19.06,73548.8,3.49,3.03,2.99,0,*77
1501182464.14,61992,19.06,73552.0,3.49,2.99,2.99,0,*76
1501182465.38,61993,19.06,73550.0,3.49,3.03,2.99,0,*75
1501182466.61,61994,19.06,73548.0,3.51,3.03,3.03,0,*79
1501182467.85,61995,19.06,73552.8,3.49,3.03,2.99,0,*73
1501182469.08,61996,19.06,73546.8,3.49,3.03,2.99,0,*70
1501182470.32,61997,19.06,73550.3,3.51,3.07,3.03,0,*7E
1501182471.58,61998,19.06,73550.8,3.49,3.03,3.03,0,*7C
1501182472.82,61999,19.06,73550.5,3.51,3.03,3.07,0,*70
1501182474.05,62000,19.06,73548.5,3.49,2.99,3.03,0,*75
1501182475.29,62001,19.06,73548.5,3.51,3.07,3.03,0,*7B
1501182476.55,62002,19.06,73548.8,3.49,3.03,3.03,0,*75
1501182477.79,62003,19.06,73550.5,3.51,3.07,3.07,0,*7D
1501182479.03,62004,19.06,73550.8,3.51,3.07,3.07,0,*7A
1501182480.26,62005,19.06,73550.3,3.49,3.03,2.99,0,*70
1501182481.52,62006,19.06,73550.5,3.49,3.11,3.03,0,*72
1501182482.79,62007,19.06,73546.8,3.49,3.03,3.03,0,*70
1501182484.03,62008,19.06,73546.0,3.51,3.07,3.15,0,*75
1501182485.26,62009,19.06,73550.3,3.51,3.07,3.07,0,*77
1501182486.5,62010,19.06,73550.0,3.51,3.07,3.07,0,*7F
1501182487.73,62011,19.06,73550.5,3.51,3.03,3.19,0,*75
1501182488.97,62012,19.06,73548.5,3.51,3.07,3.15,0,*7E
1501182490.21,62013,19.06,73548.5,3.51,3.07,3.07,0,*7C
1501182491.44,62014,19.06,73550.5,3.51,3.07,3.07,0,*7B
1501182492.68,62015,19.06,73548.3,3.51,3.15,3.07,0,*79
1501182493.92,62016,19.06,73548.5,3.51,3.07,3.07,0,*79
1501182495.16,62017,19.06,73550.5,3.51,3.07,3.15,0,*7B
1501182496.4,62018,19.06,73548.8,3.51,3.07,3.15,0,*74
1501182497.63,62019,19.06,73548.3,3.51,3.07,3.19,0,*79
1501182498.87,62020,19.06,73546.8,3.51,3.07,3.15,0,*7F
1501182500.11,62021,19.06,73548.5,3.55,3.15,3.11,0,*7D
1501182501.37,62022,19.06,73548.8,3.53,3.07,3.07,0,*7C
1501182502.63,62023,19.06,73550.0,3.53,3.15,3.19,0,*71
1501182503.89,62024,19.06,73554.8,3.53,3.19,3.15,0,*76
1501182505.13,62025,19.06,73548.0,3.51,3.15,3.15,0,*79
1501182506.37,62026,19.06,73548.8,3.51,3.15,3.15,0,*7A
1501182507.61,62027,19.06,73550.8,3.51,3.15,3.15,0,*7B
1501182508.87,62028,19.06,73550.3,3.53,3.15,3.07,0,*75
1501182510.13,62029,19.06,73550.5,3.53,3.07,3.07,0,*77
1501182511.4,62030,19.06,73550.3,3.53,3.07,3.07,0,*7F
1501182512.66,62031,19.06,73552.8,3.53,3.07,3.15,0,*7D
1501182513.93,62032,19.06,73548.0,3.53,3.15,3.15,0,*7D
1501182515.19,62033,19.06,73546.8,3.53,3.15,3.07,0,*7F
1501182516.46,62034,19.06,73550.8,3.53,3.15,3.07,0,*78
1501182517.72,62035,19.06,73550.0,3.53,3.03,3.07,0,*7E
1501182518.95,62036,19.06,73550.8,3.55,3.11,3.11,0,*7F
1501182520.22,62037,19.06,73550.3,3.53,3.07,3.15,0,*7B
1501182521.49,62038,19.06,73550.5,3.53,3.07,3.15,0,*74
1501182522.71,62039,19.06,73550.3,3.55,3.11,3.19,0,*78
1501182523.98,62040,19.06,73552.0,3.53,3.07,3.07,0,*78
1501182525.24,62041,19.06,73550.8,3.53,3.03,3.07,0,*7D
1501182526.47,62042,19.06,73550.3,3.55,3.11,3.11,0,*7C
1501182527.7,62043,19.06,73552.0,3.55,3.07,3.19,0,*72
1501182528.97,62044,19.06,73550.3,3.53,3.07,3.15,0,*7F
1501182530.2,62045,19.06,73548.5,3.55,3.11,3.19,0,*73
1501182531.46,62046,19.06,73550.8,3.53,3.07,3.07,0,*7E
1501182532.73,62047,19.06,73550.3,3.53,3.07,3.11,0,*78
1501182533.96,62048,19.06,73548.8,3.55,3.11,3.07,0,*71